Showing default

COSMOS 158, 2801

Orbit data source: Space-Track

COSMOS 158, 2801 is a payload satellite owned by OKB-10 (CIS) in LEO that was launched on Mon, 15 May 1967 UTC via a KOSMOS 11K65M launch vehicle from the Plesetsk Missile And Space Complex (PKMTR). Payload-class satellites include a variety of spacecraft equipped with specific instruments for various scientific and technological missions. These include communications satellites like Starlink; space stations such as the ISS; scientific satellites like the Hubble; Earth observation satellites from companies like Planet Labs, Umbra, and HawkEye 360; GPS; miniature CubeSats for education and research; and military/defense satellites.

Loading next visibility...
Identifier
2801, 1967-045A
Orbit
LEO
Last TLE update
11 hours ago
Origin
Manufacturer
OKB-10
Mission
Defense Navigation
Bus & Motor
KAUR-1 11F617, Unknown motor
Mass
800 kg wet, 800 kg dry
Launch date (UTC)
1967-05-15 (58 years ago)
Launch vehicle
KOSMOS 11K65M
Launch site
Plesetsk Missile And Space Complex (PKMTR)
Object type
Payload
Rocket body
Debris
Shape & HBR
Cyl + 1 Rod, 17 m
Radar Cross Section
9.978 m², Large (>1 m²)

Expand to show TLE details & history

TLE from 11 hours ago
0 COSMOS 158
1 02801U 67045A   25181.87465060  .00000012  00000-0  12742-4 0  9999
2 02801  74.0410 350.8335 0058088 284.5351  74.9363 14.36890317 45961
Epoch: 2025-06-30T20:59Z
TLE epoch observation values (Epoch: 2025-06-30T20:59:29.811Z)
Latitude
-0.00008°
Longitude
116.78107°
Altitude
760.838 km
Speed
7.48 km/s
True Right ascension
23h 23m 20s
True Declination
0° 00' 00"
Sunlit
Object was in daylight at epoch
Visualization orbit readout
Latitude
-51.60826°
Longitude
94.86719°
Altitude
749.969 km
Speed
7.499 km/s
Apparent Right ascension
03h 45m 22s
Apparent Declination
-76° 38' 01"
Sunlit
Object is in full shadow
Visualization observer readout
Local Sidereal Time
20:04:21
Azimuth
162.977° S
Elevation
-44.421°
Doppler factor
1
Orbital elements
Apogee altitude
807.915 km
Perigee altitude
724.913 km
Semi-major axis
7,144.551 km
Eccentricity
0.00581
Inclination
74.041°
RAAN
350.8335°
Arg. of periapsis
284.5351°
True anomaly
Unknown
Mean anomaly
74.9363°
Eccentric anomaly
Unknown
Mean motion
3.59402 °/min
Orbital period
100.17 mins
BSTAR
0.000012742
Loading maneuver chart data...
Loading SW <> Apogee altitude chart data...
Loading historical data...
Loading historical data...
Loading historical data...
Loading historical data...
Loading historical data...
Loading historical data...
Loading historical data...
Other satellites on launch #45 in the year 1967 (1967-05-15 UTC)

COSMOS 158 Visibility forecast

Observer location: undefined°, undefined°

Span
Click to sort rows by Start time (UTC) header in descending order
Start Az.
Max El. time (UTC)
Max El. Az.
Max El.
End time (UTC)
End Az.
10 mins2025-07-01 12:08:14.140Z181.136° SSW2025-07-01 12:13:14.140Z98.575° ESE39.959°2025-07-01 12:18:14.140Z27.522° NE
6 mins2025-07-01 13:53:14.140Z270.915° WNW2025-07-01 13:55:14.140Z297.233° NW17.936°2025-07-01 13:59:14.140Z346.272° N
9 mins2025-07-01 22:38:14.140Z339.916° N2025-07-01 22:42:14.140Z207.399° SW44.876°2025-07-01 22:47:14.140Z164.381° S
|